Location: ?p Thanh B�nh
(16.5833°N, 107.5333°E)
Time: 09:39:41
(UTC+00:00)

Cosmos 1606 Rocket - Pass Details

Date: 29 October 2020
Orbit: 604 x 631 km, 82.5° (Epoch: 23 November)

Event Time Altitude Azimuth Distance (km) Brightness Sun altitude
Rises 21:24:41 0° 359° (N) 2,915 6.9 -20.1°
Reaches altitude 10° 21:26:57 10° 3° (N) 2,006 6.1 -19.6°
Maximum altitude 21:31:22 66° 85° (E) 685 3.9 -18.5°
Drops below altitude 10° 21:35:45 10° 168° (SSE) 1,993 6.4 -17.5°
Sets 21:37:59 0° 170° (S) 2,895 7.3 -17.0°
